BREEZE-M R/B, 41582

Orbit data source: Space-Track

BREEZE-M R/B, 41582 is space debris in HEO originally from a launch on Thu, 09 Jun 2016 UTC launched from the Tyuratam Missile And Space Complex (TTMTR). Debris objects in space refer to the collection of defunct objects orbiting the Earth. Examples of debris include non-operational satellites, rocket bodies, and fragments generated from explosions, collisions, or faulty payload assembly.

Loading next visibility...
Identifier
41582, 2016-035B
Orbit
HEO
Country
Flag of CISCIS
Related business
Manufacturer
Khrunichev
Mission
Spacecraft
Bus & Motor
BRIZ, Unknown motor
Mass
~1,600 kg wet, 1,600 kg dry
Launch date (UTC)
2016-06-09 (9 years ago)
Launch vehicle
Unknown
Launch site
Tyuratam Missile And Space Complex (TTMTR)
Object type
Payload
Rocket body
Debris
Shape & HBR
Cyl, 2.0 m
Radar Cross Section
14.451 m², Large (>1 m²)

Expand to show TLE details & history
Last TLE update: 1 day ago

TLE from 1 day ago
0 BREEZE-M R/B
1 41582U 16035B   25260.50672799 -.00000119  00000-0  00000-0 0  9997
2 41582  31.9751 323.6435 7910734 103.6409 346.0063  1.12664950 38162
Epoch: 2025-09-17T12:09Z
TLE epoch observation values (Epoch: 2025-09-17T12:09:41.298Z)
Latitude
-0.00004°
Longitude
144.71268°
Altitude
11,637.871 km
Speed
5.834 km/s
True Right ascension
21h 35m 15s
True Declination
0° 00' 00"
Sunlit
Object was in daylight at epoch
Visualization orbit readout
Latitude
Unknown
Longitude
Unknown
Altitude
Unknown
Speed
Unknown
Apparent Right ascension
Unknown
Apparent Declination
Unknown
Sunlit
N/A
Visualization observer readout
Local Sidereal Time
04:36:19
Azimuth
Unknown
Elevation
Unknown
Doppler factor
Unknown
Orbital elements
Apogee altitude
63,502.161 km
Perigee altitude
1,773.317 km
Semi-major axis
39,015.876 km
Eccentricity
0.79107
Inclination
31.9751°
RAAN
323.6435°
Arg. of periapsis
103.6409°
True anomaly
255.89014°
Mean anomaly
346.0063°
Eccentric anomaly
312.69174°
Mean motion
0.28163 °/min
Orbital period
1,278.27 mins
BSTAR
0
Loading maneuver chart data...
Computing Atmospheric mass density...
Loading historical data...
Loading historical data...
Loading historical data...
Loading historical data...
Loading historical data...
Loading historical data...
Loading historical data...
Other satellites on launch #35 in the year 2016 (2016-06-09 UTC)

Documentation

Showing up to 5 results
|